KG6SIB Weather Reports


Display with metric or nautical units.
time (UTC)temp
F
wind
direction
speed
MPH
gust
MPH
rain 1hr
in
rain 24hr
in
rain mn
in
humidity
%
barometer
mb
20190321072745 42 297 1.0 10.0 0.00 0.17 0.00 94 1016.8
20190321072244 42 283 2.0 9.0 0.00 0.17 0.00 94 1016.8
20190321071745 42 290 4.0 10.0 0.00 0.17 0.00 94 1016.8
20190321071244 42 302 4.0 13.0 0.00 0.17 0.00 94 1016.8
20190321070744 42 253 13.0 13.0 0.00 0.17 0.00 93 1016.8
20190321065736 42 290 0.0 7.0 0.00 0.17 0.17 94 1016.9
20190321065236 42 268 2.0 8.0 0.00 0.17 0.17 94 1016.9
20190321064735 42 234 6.0 9.0 0.00 0.17 0.17 93 1016.9
20190321064236 42 209 2.0 9.0 0.00 0.17 0.17 93 1017.0
20190321063735 42 230 8.0 9.0 0.00 0.17 0.17 94 1017.0
20190321063235 42 227 2.0 10.0 0.00 0.17 0.17 94 1016.9
20190321062735 42 293 1.0 10.0 0.00 0.17 0.17 94 1016.9
20190321062234 42 294 4.0 9.0 0.00 0.17 0.17 94 1017.0
20190321061735 42 270 5.0 8.0 0.00 0.17 0.17 94 1017.0
20190321061234 42 245 7.0 8.0 0.00 0.17 0.17 94 1017.0
20190321060735 42 260 6.0 13.0 0.00 0.17 0.17 94 1017.0
20190321060234 42 282 6.0 13.0 0.00 0.17 0.17 94 1017.0
20190321055734 42 250 6.0 8.0 0.00 0.17 0.17 94 1016.8
20190321055237 42 233 1.0 7.0 0.00 0.17 0.17 94 1016.9
20190321054735 42 231 6.0 10.0 0.00 0.17 0.17 94 1017.0
20190321054234 42 251 4.0 10.0 0.00 0.17 0.17 94 1016.9
20190321053734 42 226 3.0 8.0 0.00 0.17 0.17 94 1016.8
20190321053233 42 300 4.0 8.0 0.00 0.17 0.17 94 1016.7
20190321052733 42 227 6.0 8.0 0.00 0.17 0.17 94 1016.7
20190321052233 42 219 4.0 6.0 0.00 0.17 0.17 94 1016.6
20190321051733 42 258 1.0 13.0 0.00 0.17 0.17 94 1016.6
20190321051233 42 227 1.0 13.0 0.00 0.17 0.17 94 1016.6
20190321050732 42 286 2.0 9.0 0.00 0.17 0.17 94 1016.6
20190321050233 42 250 2.0 9.0 0.00 0.17 0.17 94 1016.5
20190321045732 42 229 5.0 7.0 0.00 0.17 0.17 94 1016.5
20190321045232 42 224 2.0 7.0 0.00 0.17 0.17 94 1016.4
20190321044732 43 246 2.0 11.0 0.00 0.17 0.17 94 1016.5
20190321044232 43 248 4.0 11.0 0.00 0.17 0.17 94 1016.5
20190321043731 43 281 3.0 10.0 0.00 0.17 0.17 94 1016.5
20190321043232 43 212 7.0 13.0 0.00 0.17 0.17 94 1016.3
20190321042731 43 257 5.0 13.0 0.00 0.17 0.17 93 1016.3
20190321042232 43 259 3.0 10.0 0.00 0.17 0.17 93 1016.4
20190321041731 43 258 5.0 12.0 0.01 0.17 0.17 93 1016.3
20190321041231 43 276 3.0 12.0 0.01 0.17 0.17 93 1016.3
20190321040731 43 245 4.0 12.0 0.03 0.17 0.17 93 1016.3
20190321040231 43 262 4.0 9.0 0.04 0.17 0.17 93 1016.2
20190321035730 43 289 6.0 12.0 0.04 0.17 0.17 93 1016.2
20190321035231 43 297 5.0 14.0 0.04 0.17 0.17 93 1016.2
20190321034732 43 243 6.0 15.0 0.04 0.17 0.17 93 1016.1
20190321034230 43 243 4.0 16.0 0.04 0.17 0.17 93 1016.1
20190321033730 43 210 15.0 16.0 0.04 0.17 0.17 93 1016.0
20190321033230 43 322 3.0 15.0 0.04 0.17 0.17 93 1015.9
20190321032730 43 266 7.0 18.0 0.04 0.17 0.17 93 1015.8
20190321032230 43 264 4.0 18.0 0.04 0.17 0.17 93 1015.7
20190321031732 43 271 3.0 11.0 0.03 0.16 0.16 93 1015.6
20190321031229 43 285 3.0 5.0 0.03 0.16 0.16 93 1015.4
20190321030729 43 259 4.0 5.0 0.01 0.14 0.14 93 1015.4
20190321030229 43 264 3.0 6.0 0.00 0.13 0.13 93 1015.4
20190321025729 43 232 3.0 6.0 0.00 0.13 0.13 93 1015.2
20190321025229 43 203 4.0 6.0 0.00 0.13 0.13 93 1015.3
20190321024729 43 224 4.0 6.0 0.00 0.13 0.13 92 1015.3
20190321024229 43 233 4.0 5.0 0.00 0.13 0.13 92 1015.3
20190321023728 43 239 2.0 5.0 0.00 0.13 0.13 92 1015.3
20190321023228 43 237 4.0 5.0 0.00 0.13 0.13 92 1015.3
20190321022728 43 224 3.0 4.0 0.00 0.13 0.13 92 1015.2
20190321022228 43 212 2.0 7.0 0.00 0.13 0.13 91 1015.2
20190321021728 43 235 4.0 8.0 0.00 0.13 0.13 91 1015.2
20190321021228 43 240 3.0 8.0 0.00 0.13 0.13 91 1015.1
20190321020727 43 250 7.0 8.0 0.00 0.13 0.13 91 1015.1
20190321020259 43 227 4.0 8.0 0.00 0.13 0.13 91 1015.1
20190321015727 43 192 5.0 8.0 0.00 0.13 0.13 91 1015.1
20190321015227 43 227 5.0 8.0 0.00 0.13 0.13 91 1015.1
20190321014727 43 249 2.0 6.0 0.00 0.13 0.13 90 1015.2
20190321014227 43 239 2.0 5.0 0.00 0.13 0.13 90 1015.2
20190321013757 44 237 4.0 6.0 0.00 0.13 0.13 90 1015.2
20190321013257 44 252 1.0 6.0 0.00 0.13 0.13 90 1015.1
20190321012757 44 248 5.0 6.0 0.00 0.13 0.13 90 1015.2
20190321012257 44 231 2.0 8.0 0.00 0.13 0.13 89 1015.1
20190321011756 44 236 2.0 8.0 0.00 0.13 0.13 89 1015.1
20190321011256 44 212 3.0 8.0 0.00 0.13 0.13 88 1015.1
20190321010756 45 239 1.0 9.0 0.00 0.13 0.13 87 1015.3
20190321005740 46 246 5.0 12.0 0.00 0.13 0.13 84 1015.3
20190321005240 46 236 6.0 11.0 0.00 0.13 0.13 85 1015.3
20190321004740 47 217 8.0 9.0 0.00 0.13 0.13 85 1015.4
20190321004240 46 226 3.0 8.0 0.00 0.13 0.13 86 1015.1
20190321003741 46 240 3.0 11.0 0.01 0.13 0.13 85 1015.1
20190321003240 46 214 5.0 11.0 0.01 0.13 0.13 85 1015.1
20190321002739 46 203 5.0 11.0 0.01 0.13 0.13 86 1015.0
20190321002240 46 248 6.0 11.0 0.01 0.13 0.13 87 1014.9
20190321001739 45 236 4.0 8.0 0.01 0.13 0.13 89 1014.8
20190321001239 44 236 2.0 8.0 0.02 0.13 0.13 88 1014.4
20190321000740 44 210 4.0 8.0 0.02 0.13 0.13 87 1014.3
20190321000238 44 221 1.0 8.0 0.03 0.13 0.13 86 1014.3
20190320235738 44 225 4.0 6.0 0.03 0.13 0.13 86 1014.2
20190320235238 44 220 2.0 6.0 0.03 0.13 0.13 83 1014.3
20190320234738 44 285 3.0 6.0 0.03 0.13 0.13 85 1014.3
20190320234238 44 226 2.0 9.0 0.03 0.13 0.13 84 1014.3
20190320233738 44 293 5.0 9.0 0.02 0.12 0.12 81 1014.6
20190320233239 44 257 3.0 12.0 0.02 0.12 0.12 82 1014.3
20190320232737 44 292 6.0 12.0 0.02 0.12 0.12 84 1014.6
20190320232237 43 4 4.0 9.0 0.02 0.12 0.12 86 1014.2
20190320231737 43 297 5.0 8.0 0.02 0.12 0.12 87 1014.2
20190320231237 43 242 6.0 7.0 0.01 0.11 0.11 88 1014.2
20190320230737 43 331 3.0 12.0 0.02 0.11 0.11 88 1014.1
20190320230237 43 302 6.0 12.0 0.02 0.10 0.10 88 1014.1
20190320225738 44 300 5.0 13.0 0.02 0.10 0.10 90 1014.2
20190320225237 43 271 4.0 19.0 0.02 0.10 0.10 90 1013.8
20190320224737 43 311 8.0 19.0 0.02 0.10 0.10 91 1013.8
20190320224236 44 307 4.0 17.0 0.02 0.10 0.10 92 1014.0
20190320223736 44 263 6.0 17.0 0.02 0.10 0.10 92 1014.1
20190320223239 44 309 6.0 13.0 0.02 0.10 0.10 92 1014.1
20190320222736 44 270 11.0 13.0 0.02 0.10 0.10 91 1013.8
20190320222236 45 294 5.0 16.0 0.02 0.10 0.10 91 1013.8
20190320221736 45 132 3.0 16.0 0.02 0.10 0.10 90 1013.6
20190320221235 46 305 6.0 16.0 0.04 0.10 0.10 89 1013.9
20190320220735 48 261 13.0 16.0 0.04 0.09 0.09 86 1013.9
20190320220235 49 236 10.0 12.0 0.04 0.08 0.08 83 1013.8
20190320215735 49 215 8.0 11.0 0.07 0.08 0.08 87 1013.5
20190320215235 49 230 6.0 12.0 0.07 0.08 0.08 87 1013.6
20190320214735 48 214 7.0 12.0 0.08 0.08 0.08 88 1013.8
20190320214235 47 207 2.0 10.0 0.08 0.08 0.08 88 1013.6
20190320213734 47 242 8.0 10.0 0.08 0.08 0.08 86 1013.6
20190320213235 46 233 2.0 8.0 0.08 0.08 0.08 86 1013.7
20190320212734 46 234 3.0 5.0 0.08 0.08 0.08 87 1013.7
20190320212234 45 264 2.0 15.0 0.08 0.08 0.08 85 1013.5
20190320211734 46 257 4.0 15.0 0.08 0.08 0.08 82 1013.8
20190320211235 47 219 5.0 10.0 0.06 0.06 0.06 89 1013.8
20190320210734 47 237 5.0 8.0 0.05 0.05 0.05 87 1013.6
20190320210234 47 244 4.0 8.0 0.04 0.04 0.04 84 1013.6
20190320205733 48 224 3.0 8.0 0.01 0.01 0.01 84 1014.0
20190320205233 49 229 2.0 9.0 0.01 0.01 0.01 81 1014.3
20190320204734 49 246 5.0 9.0 0.00 0.00 0.00 78 1014.3
20190320204233 50 264 6.0 8.0 0.00 0.00 0.00 75 1014.2
20190320203733 50 296 6.0 8.0 0.00 0.00 0.00 75 1014.3
20190320203232 50 220 4.0 8.0 0.00 0.00 0.00 76 1014.3
20190320202735 50 276 5.0 12.0 0.00 0.00 0.00 77 1014.5
20190320202232 50 316 5.0 12.0 0.00 0.00 0.00 77 1014.6
20190320201732 50 298 11.0 11.0 0.00 0.00 0.00 79 1014.6
20190320201232 50 146 1.0 6.0 0.00 0.00 0.00 83 1014.8
20190320200732 49 264 2.0 8.0 0.00 0.00 0.00 81 1015.0
20190320200232 49 294 6.0 8.0 0.00 0.00 0.00 80 1014.8
20190320195732 49 246 3.0 7.0 0.00 0.00 0.00 82 1015.1
20190320195232 48 236 2.0 8.0 0.00 0.00 0.00 83 1015.1
20190320194731 48 267 4.0 10.0 0.00 0.00 0.00 83 1015.2
20190320194231 48 241 4.0 10.0 0.00 0.00 0.00 83 1015.5
20190320193732 48 245 7.0 9.0 0.00 0.00 0.00 82 1015.5
20190320193231 48 267 5.0 10.0 0.00 0.00 0.00 82 1015.4
20190320192731 48 235 6.0 10.0 0.00 0.00 0.00 80 1015.5
20190320192232 48 236 5.0 9.0 0.00 0.00 0.00 81 1015.5
20190320191732 49 204 6.0 10.0 0.00 0.00 0.00 81 1015.4
20190320191231 48 268 6.0 10.0 0.00 0.00 0.00 82 1015.6
20190320190731 48 248 8.0 10.0 0.00 0.00 0.00 82 1015.7
20190320185733 48 289 4.0 7.0 0.00 0.00 0.00 82 1015.7
20190320185231 48 296 5.0 7.0 0.00 0.00 0.00 82 1015.7
20190320184732 48 287 5.0 8.0 0.00 0.00 0.00 82 1015.6
20190320184233 48 281 2.0 8.0 0.00 0.00 0.00 82 1015.5
20190320183731 48 233 4.0 5.0 0.00 0.00 0.00 81 1015.4
20190320183231 48 269 4.0 5.0 0.00 0.00 0.00 79 1015.5
20190320182732 48 191 0.0 2.0 0.00 0.00 0.00 81 1015.5
20190320182233 47 281 2.0 2.0 0.00 0.00 0.00 79 1015.5
20190320181732 47 167 0.0 2.0 0.00 0.00 0.00 82 1015.4
20190320181231 46 235 1.0 2.0 0.00 0.00 0.00 81 1015.1
20190320180730 46 153 0.0 1.0 0.00 0.00 0.00 80 1015.0
20190320180230 46 153 0.0 2.0 0.00 0.00 0.00 80 1015.1
20190320175730 46 136 1.0 2.0 0.00 0.00 0.00 81 1014.7
20190320175230 46 64 0.0 3.0 0.00 0.00 0.00 83 1014.8
20190320174732 46 110 1.0 4.0 0.00 0.00 0.00 85 1014.8
20190320174230 46 63 2.0 4.0 0.00 0.00 0.00 84 1014.7
20190320173730 45 351 2.0 4.0 0.00 0.00 0.00 85 1014.5
20190320173229 45 95 0.0 4.0 0.00 0.00 0.00 85 1014.5
20190320172730 45 191 0.0 2.0 0.00 0.00 0.00 83 1014.5
20190320172230 45 194 0.0 4.0 0.00 0.00 0.00 82 1014.6
20190320171730 45 175 2.0 6.0 0.00 0.00 0.00 80 1014.7
20190320171229 46 214 4.0 6.0 0.00 0.00 0.00 78 1014.7
20190320170729 46 260 1.0 4.0 0.00 0.00 0.00 76 1014.7
20190320170228 46 205 1.0 2.0 0.00 0.00 0.00 76 1014.7
20190320165730 46 290 0.0 2.0 0.00 0.00 0.00 78 1015.1
20190320165229 46 307 1.0 2.0 0.00 0.00 0.00 78 1014.9
20190320164729 45 346 1.0 2.0 0.00 0.00 0.00 78 1014.8
20190320164229 45 43 0.0 1.0 0.00 0.00 0.00 80 1014.9
20190320163730 45 63 1.0 2.0 0.00 0.00 0.00 80 1014.8
20190320163229 45 65 0.0 3.0 0.00 0.00 0.00 80 1014.7
20190320162728 45 57 0.0 3.0 0.00 0.00 0.00 81 1014.6
20190320162228 45 58 1.0 2.0 0.00 0.00 0.00 81 1014.4
20190320161727 45 113 1.0 2.0 0.00 0.00 0.00 81 1014.6
20190320161228 45 345 0.0 2.0 0.00 0.00 0.00 83 1014.6
20190320160728 45 291 0.0 1.0 0.00 0.00 0.00 83 1014.6
20190320160228 45 289 0.0 3.0 0.00 0.00 0.00 83 1014.5
20190320155728 45 226 0.0 3.0 0.00 0.00 0.00 83 1014.7
20190320155228 45 229 0.0 3.0 0.00 0.00 0.00 84 1014.6
20190320154727 45 219 2.0 3.0 0.00 0.00 0.00 84 1014.7
20190320154227 45 237 1.0 3.0 0.00 0.00 0.00 85 1014.5
20190320153726 45 114 2.0 2.0 0.00 0.00 0.00 87 1014.4
20190320153227 45 252 1.0 1.0 0.00 0.00 0.00 88 1014.6
20190320152728 44 259 1.0 3.0 0.00 0.00 0.00 88 1014.4
20190320152226 44 228 1.0 4.0 0.00 0.00 0.00 89 1014.4
20190320151726 44 258 2.0 5.0 0.00 0.00 0.00 89 1014.6
20190320151226 45 256 1.0 5.0 0.00 0.00 0.00 88 1014.6
20190320150726 45 304 3.0 4.0 0.00 0.00 0.00 89 1014.6
20190320150255 45 281 3.0 5.0 0.00 0.00 0.00 88 1014.6
20190320145725 44 251 2.0 5.0 0.00 0.00 0.00 88 1014.5
20190320145255 44 227 1.0 3.0 0.00 0.00 0.00 88 1014.4
20190320144755 44 193 0.0 3.0 0.00 0.00 0.00 87 1014.3
20190320144255 44 274 2.0 3.0 0.00 0.00 0.00 87 1014.1
20190320143754 44 241 0.0 2.0 0.00 0.00 0.00 86 1014.1
20190320143254 43 188 2.0 2.0 0.00 0.00 0.00 83 1013.8
20190320142755 43 195 1.0 1.0 0.00 0.00 0.00 82 1013.6
20190320142255 43 188 0.0 0.0 0.00 0.00 0.00 81 1013.5
20190320141755 43 188 0.0 0.0 0.00 0.00 0.00 80 1013.5
20190320141254 43 188 0.0 0.0 0.00 0.00 0.00 79 1013.4
20190320140754 43 188 0.0 2.0 0.00 0.00 0.00 78 1013.3
20190320140254 43 187 0.0 2.0 0.00 0.00 0.00 77 1013.2
20190320135754 44 231 1.0 4.0 0.00 0.00 0.00 80 1014.0
20190320135253 44 283 2.0 4.0 0.00 0.00 0.00 81 1013.7
20190320134753 44 248 2.0 3.0 0.00 0.00 0.00 74 1013.7
20190320134253 44 39 0.0 1.0 0.00 0.00 0.00 73 1013.7
20190320133753 44 37 0.0 2.0 0.00 0.00 0.00 73 1013.6
20190320133253 44 50 1.0 2.0 0.00 0.00 0.00 73 1013.5
20190320132753 44 52 2.0 2.0 0.00 0.00 0.00 73 1013.5
20190320132252 43 24 1.0 4.0 0.00 0.00 0.00 73 1013.5
20190320131753 43 39 1.0 4.0 0.00 0.00 0.00 75 1013.5
20190320131252 43 56 3.0 4.0 0.00 0.00 0.00 74 1013.4
20190320130752 43 32 0.0 3.0 0.00 0.00 0.00 76 1013.5
20190320125736 43 43 2.0 3.0 0.00 0.00 0.00 75 1014.1
20190320125235 43 46 2.0 3.0 0.00 0.00 0.00 75 1014.1
20190320124735 43 46 0.0 3.0 0.00 0.00 0.00 76 1014.2
20190320124235 43 44 2.0 4.0 0.00 0.00 0.00 75 1014.1
20190320123735 42 41 3.0 4.0 0.00 0.00 0.00 75 1013.9
20190320123235 42 48 2.0 4.0 0.00 0.00 0.00 76 1013.9
20190320122735 42 38 3.0 4.0 0.00 0.00 0.00 75 1013.9
20190320122235 42 51 2.0 3.0 0.00 0.00 0.00 75 1013.8
20190320121734 42 39 2.0 3.0 0.00 0.00 0.00 76 1013.9
20190320121234 42 41 3.0 4.0 0.00 0.00 0.00 75 1013.9
20190320120734 43 42 2.0 4.0 0.00 0.00 0.00 74 1014.0
20190320120234 42 38 3.0 4.0 0.00 0.00 0.00 73 1013.8
20190320115734 42 43 3.0 4.0 0.00 0.00 0.00 73 1014.1
20190320115234 42 42 2.0 4.0 0.00 0.00 0.00 72 1013.9
20190320114734 43 51 2.0 3.0 0.00 0.00 0.00 70 1014.0
20190320114233 43 46 1.0 4.0 0.00 0.00 0.00 72 1013.9
20190320113734 42 34 1.0 5.0 0.00 0.00 0.00 72 1013.8
20190320113233 42 45 3.0 5.0 0.00 0.00 0.00 74 1013.7
20190320112734 42 44 3.0 5.0 0.00 0.00 0.00 74 1013.8
20190320112234 41 33 4.0 5.0 0.00 0.00 0.00 74 1013.7
20190320111733 41 54 2.0 4.0 0.00 0.00 0.00 73 1013.8
20190320111233 41 42 3.0 4.0 0.00 0.00 0.00 73 1013.9
20190320110733 41 45 1.0 4.0 0.00 0.00 0.00 74 1013.9
20190320110232 40 53 2.0 5.0 0.00 0.00 0.00 75 1013.7
20190320105735 40 40 3.0 5.0 0.00 0.00 0.00 75 1013.6
20190320105232 40 43 4.0 4.0 0.00 0.00 0.00 74 1013.7
20190320104732 39 49 2.0 4.0 0.00 0.00 0.00 73 1013.5
20190320104232 39 46 3.0 5.0 0.00 0.00 0.00 73 1013.5
20190320103732 39 44 2.0 5.0 0.00 0.00 0.00 74 1013.5
20190320103233 38 41 3.0 6.0 0.00 0.00 0.00 74 1013.5
20190320102732 38 45 3.0 6.0 0.00 0.00 0.00 73 1013.6
20190320102231 38 46 4.0 6.0 0.00 0.00 0.00 74 1013.6
20190320101732 38 35 5.0 6.0 0.00 0.00 0.00 74 1013.7
20190320101232 38 38 3.0 7.0 0.00 0.00 0.00 73 1013.7
20190320100731 38 50 4.0 7.0 0.00 0.00 0.00 74 1013.7
20190320100231 38 52 5.0 7.0 0.00 0.00 0.00 74 1013.8
20190320095731 38 39 5.0 6.0 0.00 0.00 0.00 73 1013.8
20190320095230 38 48 5.0 6.0 0.00 0.00 0.00 74 1013.9
20190320094731 39 46 5.0 5.0 0.00 0.00 0.00 72 1014.2
20190320094231 39 25 3.0 5.0 0.00 0.00 0.00 71 1014.1
20190320093730 40 53 4.0 6.0 0.00 0.00 0.00 70 1014.2
20190320093231 40 46 4.0 6.0 0.00 0.00 0.00 69 1014.1
20190320092730 40 56 4.0 6.0 0.00 0.00 0.00 69 1014.1
20190320092229 40 35 4.0 6.0 0.00 0.00 0.00 68 1014.0
20190320091729 40 60 1.0 5.0 0.00 0.00 0.00 69 1014.1
20190320091229 40 62 2.0 5.0 0.00 0.00 0.00 69 1013.9
20190320090729 41 51 5.0 5.0 0.00 0.00 0.00 67 1014.1
20190320090229 41 56 5.0 6.0 0.00 0.00 0.00 68 1014.1
20190320085729 41 49 4.0 6.0 0.00 0.00 0.00 68 1014.4
20190320085231 42 46 3.0 6.0 0.00 0.00 0.00 67 1014.7
20190320084728 41 69 5.0 7.0 0.00 0.00 0.00 70 1014.5
20190320084228 41 60 2.0 8.0 0.00 0.00 0.00 69 1014.5
20190320083728 41 59 6.0 8.0 0.00 0.00 0.00 70 1014.7
20190320083229 41 43 0.0 7.0 0.00 0.00 0.00 71 1014.6
20190320082728 41 43 6.0 7.0 0.00 0.00 0.00 71 1014.6
20190320082228 42 48 3.0 8.0 0.00 0.00 0.00 70 1014.8
20190320081728 42 54 5.0 8.0 0.00 0.00 0.00 71 1014.7
20190320081227 42 56 3.0 8.0 0.00 0.00 0.00 70 1014.8
20190320080727 43 56 7.0 8.0 0.00 0.00 0.00 69 1014.8
20190320080227 44 33 3.0 5.0 0.00 0.00 0.00 68 1015.2
20190320075727 45 34 4.0 5.0 0.00 0.00 0.00 66 1014.9
20190320075227 45 56 2.0 4.0 0.00 0.00 0.00 68 1014.9
20190320074726 45 58 3.0 4.0 0.00 0.00 0.00 68 1014.8
20190320074227 46 58 2.0 4.0 0.00 0.00 0.00 67 1015.0
20190320073731 47 60 3.0 4.0 0.00 0.00 0.00 64 1015.1
20190320073227 47 79 1.0 5.0 0.00 0.00 0.00 65 1015.3